Location: Westminster
(33.3626°N, 96.4619°W)
Time: 21:38:27
(UTC+00:00)

Cosmos 1763 Rocket - Pass Details

Date: 06 July 2022
Orbit: 732 x 780 km, 74.0° (Epoch: 13 August)

Event Time Altitude Azimuth Distance (km) Brightness Sun altitude
Exits shadow 08:21:42 12° 300° (WNW) 2,149 5.8 -28.0°
Maximum altitude 08:21:47 12° 301° (WNW) 2,149 5.8 -28.0°
Drops below altitude 10° 08:23:52 10° 324° (NW) 2,313 6.2 -27.8°
Sets 08:27:53 0° 354° (N) 3,254 7.5 -27.4°
